Time,TemperatureF,DewpointF,PressureIn,WindDirection,WindDirectionDegrees,WindSpeedMPH,WindSpeedGustMPH,Humidity,HourlyPrecipIn,Conditions,Clouds,dailyrainin,SoftwareType,DateUTC
2013-02-04 00:03:00,40.5,35.7,30.15,East,90,0.7,1.1,83,0.00,,,0.00,WUHU216HW,2013-02-04 08:03:00,
2013-02-04 00:08:00,40.5,35.7,30.15,North,0,0.7,1.1,83,0.00,,,0.00,WUHU216HW,2013-02-04 08:08:00,
2013-02-04 00:13:00,40.5,36.0,30.15,NNE,23,1.1,1.3,84,0.00,,,0.00,WUHU216HW,2013-02-04 08:13:00,
2013-02-04 00:18:00,40.5,36.0,30.15,East,90,1.1,1.3,84,0.00,,,0.00,WUHU216HW,2013-02-04 08:18:00,
2013-02-04 00:23:00,40.1,35.4,30.15,ESE,113,1.3,1.6,83,0.00,,,0.00,WUHU216HW,2013-02-04 08:23:00,
2013-02-04 00:28:00,40.0,35.2,30.15,ESE,113,0.7,1.8,83,0.00,,,0.00,WUHU216HW,2013-02-04 08:28:00,
2013-02-04 00:33:00,39.6,34.8,30.15,ESE,113,0.7,1.8,83,0.00,,,0.00,WUHU216HW,2013-02-04 08:33:00,
2013-02-04 00:38:00,39.4,34.7,30.15,ESE,113,0.4,1.3,83,0.00,,,0.00,WUHU216HW,2013-02-04 08:38:00,
2013-02-04 00:43:00,39.4,34.7,30.15,ESE,113,0.9,1.1,83,0.00,,,0.00,WUHU216HW,2013-02-04 08:43:00,
2013-02-04 00:48:00,39.4,34.7,30.15,ESE,113,0.4,1.1,83,0.00,,,0.00,WUHU216HW,2013-02-04 08:48:00,
2013-02-04 00:53:00,39.2,34.6,30.15,ESE,113,0.0,1.1,83,0.00,,,0.00,WUHU216HW,2013-02-04 08:53:00,
2013-02-04 00:58:00,39.2,34.6,30.15,ESE,113,0.4,0.4,83,0.00,,,0.00,WUHU216HW,2013-02-04 08:58:00,
2013-02-04 01:03:00,39.1,34.4,30.15,ESE,113,0.0,0.4,83,0.00,,,0.00,WUHU216HW,2013-02-04 09:03:00,
2013-02-04 01:08:00,39.1,34.4,30.14,ESE,113,0.9,0.9,83,0.00,,,0.00,WUHU216HW,2013-02-04 09:08:00,
2013-02-04 01:13:00,38.9,34.2,30.14,East,90,0.9,1.1,83,0.00,,,0.00,WUHU216HW,2013-02-04 09:13:00,
2013-02-04 01:18:00,38.9,34.5,30.15,East,90,0.0,1.1,84,0.00,,,0.00,WUHU216HW,2013-02-04 09:18:00,
2013-02-04 01:23:00,38.9,34.5,30.15,ENE,68,0.7,0.9,84,0.00,,,0.00,WUHU216HW,2013-02-04 09:23:00,
2013-02-04 01:28:00,38.9,34.5,30.15,NNE,23,0.0,0.9,84,0.00,,,0.00,WUHU216HW,2013-02-04 09:28:00,
2013-02-04 01:33:00,38.7,34.3,30.14,ENE,68,0.4,0.4,84,0.00,,,0.00,WUHU216HW,2013-02-04 09:33:00,
2013-02-04 01:38:00,38.5,34.1,30.14,ESE,113,1.8,2.5,84,0.00,,,0.00,WUHU216HW,2013-02-04 09:38:00,
2013-02-04 01:43:00,38.3,33.9,30.13,ENE,68,1.6,2.5,84,0.00,,,0.00,WUHU216HW,2013-02-04 09:43:00,
2013-02-04 01:48:00,38.2,33.8,30.13,NE,45,0.0,1.8,84,0.00,,,0.00,WUHU216HW,2013-02-04 09:48:00,
2013-02-04 01:53:00,38.2,33.8,30.13,ENE,68,0.7,0.9,84,0.00,,,0.00,WUHU216HW,2013-02-04 09:53:00,
2013-02-04 01:58:00,38.2,33.8,30.13,NE,45,1.1,1.8,84,0.00,,,0.00,WUHU216HW,2013-02-04 09:58:00,
2013-02-04 02:03:00,38.2,33.8,30.13,SE,135,0.0,1.8,84,0.00,,,0.00,WUHU216HW,2013-02-04 10:03:00,
2013-02-04 02:08:00,38.2,33.8,30.13,SE,135,0.0,0.9,84,0.00,,,0.00,WUHU216HW,2013-02-04 10:08:00,
2013-02-04 02:13:00,38.2,33.8,30.14,SE,135,0.0,0.0,84,0.00,,,0.00,WUHU216HW,2013-02-04 10:13:00,
2013-02-04 02:18:00,38.2,34.0,30.14,North,0,0.4,1.1,85,0.00,,,0.00,WUHU216HW,2013-02-04 10:18:00,
2013-02-04 02:23:00,38.2,34.0,30.13,North,0,0.4,1.1,85,0.00,,,0.00,WUHU216HW,2013-02-04 10:23:00,
2013-02-04 02:28:00,38.0,33.6,30.13,North,0,0.0,0.7,84,0.00,,,0.00,WUHU216HW,2013-02-04 10:28:00,
2013-02-04 02:33:00,37.8,33.7,30.13,North,0,0.0,0.0,85,0.00,,,0.00,WUHU216HW,2013-02-04 10:33:00,
2013-02-04 02:38:00,37.8,33.4,30.14,West,270,0.4,1.1,84,0.00,,,0.00,WUHU216HW,2013-02-04 10:38:00,
2013-02-04 02:43:00,37.8,33.4,30.14,West,270,0.0,1.1,84,0.00,,,0.00,WUHU216HW,2013-02-04 10:43:00,
2013-02-04 02:48:00,37.4,33.0,30.14,West,270,0.0,1.1,84,0.00,,,0.00,WUHU216HW,2013-02-04 10:48:00,
2013-02-04 02:53:00,37.3,32.9,30.14,WSW,248,0.9,0.9,84,0.00,,,0.00,WUHU216HW,2013-02-04 10:53:00,
2013-02-04 02:58:00,37.1,32.7,30.13,SE,135,1.6,1.6,84,0.00,,,0.00,WUHU216HW,2013-02-04 10:58:00,
2013-02-04 03:03:00,36.9,32.5,30.13,SSE,158,0.4,1.6,84,0.00,,,0.00,WUHU216HW,2013-02-04 11:03:00,
2013-02-04 03:08:00,36.7,32.3,30.13,SE,135,1.1,1.1,84,0.00,,,0.00,WUHU216HW,2013-02-04 11:08:00,
2013-02-04 03:13:00,36.5,32.1,30.13,ESE,113,0.9,1.1,84,0.00,,,0.00,WUHU216HW,2013-02-04 11:13:00,
2013-02-04 03:18:00,36.4,32.0,30.13,ESE,113,1.3,1.3,84,0.00,,,0.00,WUHU216HW,2013-02-04 11:18:00,
2013-02-04 03:23:00,36.4,32.0,30.13,ESE,113,0.4,1.3,84,0.00,,,0.00,WUHU216HW,2013-02-04 11:23:00,
2013-02-04 03:28:00,36.4,32.2,30.12,ESE,113,0.9,1.3,85,0.00,,,0.00,WUHU216HW,2013-02-04 11:28:00,
2013-02-04 03:33:00,36.2,32.0,30.12,ESE,113,1.1,1.3,85,0.00,,,0.00,WUHU216HW,2013-02-04 11:33:00,
2013-02-04 03:38:00,36.2,32.0,30.12,ESE,113,1.1,1.1,85,0.00,,,0.00,WUHU216HW,2013-02-04 11:38:00,
2013-02-04 03:43:00,36.2,32.0,30.12,ESE,113,0.0,1.1,85,0.00,,,0.00,WUHU216HW,2013-02-04 11:43:00,
2013-02-04 03:48:00,36.2,32.0,30.12,ESE,113,0.9,1.1,85,0.00,,,0.00,WUHU216HW,2013-02-04 11:48:00,
2013-02-04 03:53:00,36.4,32.2,30.12,ENE,68,0.0,1.1,85,0.00,,,0.00,WUHU216HW,2013-02-04 11:53:00,
2013-02-04 03:58:00,36.4,32.2,30.12,NNE,23,0.0,1.1,85,0.00,,,0.00,WUHU216HW,2013-02-04 11:58:00,
2013-02-04 04:03:00,36.4,32.5,30.12,North,0,0.2,0.4,86,0.00,,,0.00,WUHU216HW,2013-02-04 12:03:00,
2013-02-04 04:08:00,36.4,32.5,30.12,ESE,113,1.1,1.1,86,0.00,,,0.00,WUHU216HW,2013-02-04 12:08:00,
2013-02-04 04:13:00,36.4,32.5,30.12,SE,135,0.4,2.0,86,0.00,,,0.00,WUHU216HW,2013-02-04 12:13:00,
2013-02-04 04:18:00,36.2,32.3,30.12,SE,135,0.4,2.0,86,0.00,,,0.00,WUHU216HW,2013-02-04 12:18:00,
2013-02-04 04:23:00,36.0,32.1,30.12,ESE,113,0.0,0.7,86,0.00,,,0.00,WUHU216HW,2013-02-04 12:23:00,
2013-02-04 04:28:00,36.0,32.1,30.12,ENE,68,1.1,1.1,86,0.00,,,0.00,WUHU216HW,2013-02-04 12:28:00,
2013-02-04 04:33:00,36.0,32.1,30.12,East,90,0.9,1.8,86,0.00,,,0.00,WUHU216HW,2013-02-04 12:33:00,
2013-02-04 04:38:00,36.0,32.1,30.12,ESE,113,1.1,1.8,86,0.00,,,0.00,WUHU216HW,2013-02-04 12:38:00,
2013-02-04 04:43:00,36.0,32.1,30.11,SE,135,0.7,1.6,86,0.00,,,0.00,WUHU216HW,2013-02-04 12:43:00,
2013-02-04 04:48:00,36.0,32.1,30.12,SE,135,0.0,1.1,86,0.00,,,0.00,WUHU216HW,2013-02-04 12:48:00,
2013-02-04 04:53:00,35.8,32.0,30.11,SE,135,0.0,1.1,86,0.00,,,0.00,WUHU216HW,2013-02-04 12:53:00,
2013-02-04 04:58:00,35.8,32.0,30.11,SW,225,1.3,1.3,86,0.00,,,0.00,WUHU216HW,2013-02-04 12:58:00,
2013-02-04 05:03:00,35.8,32.0,30.11,SW,225,0.0,1.8,86,0.00,,,0.00,WUHU216HW,2013-02-04 13:03:00,
2013-02-04 05:08:00,36.0,32.1,30.11,SW,225,0.0,1.8,86,0.00,,,0.00,WUHU216HW,2013-02-04 13:08:00,
2013-02-04 05:13:00,36.0,32.4,30.11,North,0,1.3,1.8,87,0.00,,,0.00,WUHU216HW,2013-02-04 13:13:00,
2013-02-04 05:18:00,36.0,32.4,30.11,North,0,0.0,1.8,87,0.00,,,0.00,WUHU216HW,2013-02-04 13:18:00,
2013-02-04 05:23:00,35.8,32.2,30.10,South,180,1.1,1.1,87,0.00,,,0.00,WUHU216HW,2013-02-04 13:23:00,
2013-02-04 05:28:00,35.6,31.8,30.10,South,180,0.0,1.1,86,0.00,,,0.00,WUHU216HW,2013-02-04 13:28:00,
2013-02-04 05:33:00,35.6,31.8,30.10,ENE,68,1.3,1.6,86,0.00,,,0.00,WUHU216HW,2013-02-04 13:33:00,
2013-02-04 05:38:00,35.6,31.8,30.10,East,90,1.3,1.6,86,0.00,,,0.00,WUHU216HW,2013-02-04 13:38:00,
2013-02-04 05:43:00,35.6,31.8,30.10,ESE,113,0.0,1.3,86,0.00,,,0.00,WUHU216HW,2013-02-04 13:43:00,
2013-02-04 05:48:00,35.5,31.6,30.11,ESE,113,0.0,1.3,86,0.00,,,0.00,WUHU216HW,2013-02-04 13:48:00,
2013-02-04 05:53:00,35.5,31.6,30.11,ESE,113,0.0,0.0,86,0.00,,,0.00,WUHU216HW,2013-02-04 13:53:00,
2013-02-04 05:58:00,35.3,31.4,30.11,ESE,113,0.0,0.0,86,0.00,,,0.00,WUHU216HW,2013-02-04 13:58:00,
2013-02-04 06:04:00,35.3,31.4,30.11,ESE,113,0.0,0.0,86,0.00,,,0.00,WUHU216HW,2013-02-04 14:04:00,
2013-02-04 06:09:00,35.1,31.2,30.11,South,180,0.7,1.3,86,0.00,,,0.00,WUHU216HW,2013-02-04 14:09:00,
2013-02-04 06:14:00,34.9,31.1,30.11,South,180,0.7,1.3,86,0.00,,,0.00,WUHU216HW,2013-02-04 14:14:00,
2013-02-04 06:19:00,34.7,30.9,30.12,SSE,158,0.4,1.6,86,0.00,,,0.00,WUHU216HW,2013-02-04 14:19:00,
2013-02-04 06:24:00,34.6,30.7,30.12,SE,135,0.4,1.6,86,0.00,,,0.00,WUHU216HW,2013-02-04 14:24:00,
2013-02-04 06:29:00,34.6,30.7,30.12,SE,135,0.0,1.1,86,0.00,,,0.00,WUHU216HW,2013-02-04 14:29:00,
2013-02-04 06:34:00,34.4,30.5,30.12,SSW,203,1.1,1.1,86,0.00,,,0.00,WUHU216HW,2013-02-04 14:34:00,
2013-02-04 06:39:00,34.2,30.3,30.12,SSW,203,1.1,1.1,86,0.00,,,0.00,WUHU216HW,2013-02-04 14:39:00,
2013-02-04 06:44:00,34.2,30.3,30.12,SSE,158,0.2,1.1,86,0.00,,,0.00,WUHU216HW,2013-02-04 14:44:00,
2013-02-04 06:49:00,34.2,30.3,30.12,SSE,158,0.4,1.1,86,0.00,,,0.00,WUHU216HW,2013-02-04 14:49:00,
2013-02-04 06:54:00,34.2,30.3,30.13,SSE,158,0.4,0.9,86,0.00,,,0.00,WUHU216HW,2013-02-04 14:54:00,
2013-02-04 06:59:00,34.0,30.2,30.13,SE,135,1.8,1.8,86,0.00,,,0.00,WUHU216HW,2013-02-04 14:59:00,
2013-02-04 07:04:00,33.8,30.0,30.13,SE,135,1.1,1.8,86,0.00,,,0.00,WUHU216HW,2013-02-04 15:04:00,
2013-02-04 07:08:00,33.8,30.0,30.13,ESE,113,0.2,1.6,86,0.00,,,0.00,WUHU216HW,2013-02-04 15:08:00,
2013-02-04 07:13:00,33.8,30.0,30.13,ESE,113,1.3,1.3,86,0.00,,,0.00,WUHU216HW,2013-02-04 15:13:00,
2013-02-04 07:18:00,33.8,30.0,30.13,East,90,0.0,1.3,86,0.00,,,0.00,WUHU216HW,2013-02-04 15:18:00,
2013-02-04 07:23:00,33.8,30.0,30.13,East,90,0.0,0.9,86,0.00,,,0.00,WUHU216HW,2013-02-04 15:23:00,
2013-02-04 07:28:00,34.0,30.2,30.13,East,90,0.4,0.4,86,0.00,,,0.00,WUHU216HW,2013-02-04 15:28:00,
2013-02-04 07:33:00,34.2,30.3,30.13,East,90,0.0,0.4,86,0.00,,,0.00,WUHU216HW,2013-02-04 15:33:00,
2013-02-04 07:38:00,34.4,30.5,30.13,East,90,0.0,0.4,86,0.00,,,0.00,WUHU216HW,2013-02-04 15:38:00,
2013-02-04 07:44:00,34.6,30.7,30.13,ENE,68,0.9,0.9,86,0.00,,,0.00,WUHU216HW,2013-02-04 15:44:00,
2013-02-04 07:49:00,35.1,31.9,30.14,NE,45,1.8,1.8,88,0.00,,,0.00,WUHU216HW,2013-02-04 15:49:00,
2013-02-04 07:54:00,35.6,32.7,30.14,North,0,0.9,1.8,89,0.00,,,0.00,WUHU216HW,2013-02-04 15:54:00,
2013-02-04 07:59:00,36.0,33.0,30.14,North,0,0.0,1.6,89,0.00,,,0.00,WUHU216HW,2013-02-04 15:59:00,
2013-02-04 08:04:00,36.4,33.1,30.14,ENE,68,0.0,1.1,88,0.00,,,0.00,WUHU216HW,2013-02-04 16:04:00,
2013-02-04 08:09:00,36.5,33.3,30.14,East,90,1.1,1.1,88,0.00,,,0.00,WUHU216HW,2013-02-04 16:09:00,
2013-02-04 08:14:00,36.9,33.7,30.14,East,90,0.0,1.1,88,0.00,,,0.00,WUHU216HW,2013-02-04 16:14:00,
2013-02-04 08:19:00,37.3,34.0,30.14,East,90,0.0,0.9,88,0.00,,,0.00,WUHU216HW,2013-02-04 16:19:00,
2013-02-04 08:24:00,37.8,34.8,30.15,North,0,0.0,0.7,89,0.00,,,0.00,WUHU216HW,2013-02-04 16:24:00,
2013-02-04 08:29:00,38.3,35.6,30.15,North,0,0.0,0.7,90,0.00,,,0.00,WUHU216HW,2013-02-04 16:29:00,
2013-02-04 08:34:00,38.9,36.2,30.15,NNE,23,0.2,0.7,90,0.00,,,0.00,WUHU216HW,2013-02-04 16:34:00,
2013-02-04 08:39:00,39.4,36.7,30.15,NE,45,0.2,0.7,90,0.00,,,0.00,WUHU216HW,2013-02-04 16:39:00,
2013-02-04 08:44:00,39.8,37.1,30.15,East,90,0.0,0.7,90,0.00,,,0.00,WUHU216HW,2013-02-04 16:44:00,
2013-02-04 08:49:00,40.1,37.2,30.15,WSW,248,1.1,1.1,89,0.00,,,0.00,WUHU216HW,2013-02-04 16:49:00,
2013-02-04 08:54:00,40.7,37.7,30.15,NNW,338,0.4,1.1,89,0.00,,,0.00,WUHU216HW,2013-02-04 16:54:00,
2013-02-04 08:59:00,40.9,37.9,30.15,NW,315,0.9,1.1,89,0.00,,,0.00,WUHU216HW,2013-02-04 16:59:00,
2013-02-04 09:04:00,41.4,38.4,30.15,WSW,248,0.7,1.3,89,0.00,,,0.00,WUHU216HW,2013-02-04 17:04:00,
2013-02-04 09:09:00,41.6,38.6,30.15,WNW,293,0.9,1.8,89,0.00,,,0.00,WUHU216HW,2013-02-04 17:09:00,
2013-02-04 09:14:00,42.1,39.2,30.16,SW,225,1.3,1.8,89,0.00,,,0.00,WUHU216HW,2013-02-04 17:14:00,
2013-02-04 09:19:00,42.3,39.0,30.16,West,270,2.5,2.5,88,0.00,,,0.00,WUHU216HW,2013-02-04 17:19:00,
2013-02-04 09:24:00,42.7,39.3,30.16,West,270,2.7,2.7,88,0.00,,,0.00,WUHU216HW,2013-02-04 17:24:00,
2013-02-04 09:29:00,43.0,39.7,30.16,West,270,2.5,2.7,88,0.00,,,0.00,WUHU216HW,2013-02-04 17:29:00,
2013-02-04 09:34:00,43.4,40.1,30.16,West,270,1.1,2.5,88,0.00,,,0.00,WUHU216HW,2013-02-04 17:34:00,
2013-02-04 09:39:00,43.6,40.2,30.16,WSW,248,2.0,2.0,88,0.00,,,0.00,WUHU216HW,2013-02-04 17:39:00,
2013-02-04 09:44:00,44.3,41.0,30.16,WNW,293,2.5,4.3,88,0.00,,,0.00,WUHU216HW,2013-02-04 17:44:00,
2013-02-04 09:49:00,44.6,41.3,30.16,West,270,3.8,4.3,88,0.00,,,0.00,WUHU216HW,2013-02-04 17:49:00,
2013-02-04 09:54:00,44.8,41.5,30.16,WSW,248,1.8,3.8,88,0.00,,,0.00,WUHU216HW,2013-02-04 17:54:00,
2013-02-04 09:59:00,45.0,41.7,30.16,NNE,23,0.0,3.6,88,0.00,,,0.00,WUHU216HW,2013-02-04 17:59:00,
2013-02-04 10:04:00,45.7,42.4,30.16,South,180,3.4,4.3,88,0.00,,,0.00,WUHU216HW,2013-02-04 18:04:00,
2013-02-04 10:09:00,45.9,42.6,30.16,SSW,203,4.7,4.7,88,0.00,,,0.00,WUHU216HW,2013-02-04 18:09:00,
2013-02-04 10:14:00,46.4,43.1,30.16,SW,225,1.8,4.7,88,0.00,,,0.00,WUHU216HW,2013-02-04 18:14:00,
2013-02-04 10:19:00,46.6,43.0,30.16,SW,225,2.0,3.6,87,0.00,,,0.00,WUHU216HW,2013-02-04 18:19:00,
2013-02-04 10:24:00,46.8,43.2,30.16,SSE,158,2.5,2.7,87,0.00,,,0.00,WUHU216HW,2013-02-04 18:24:00,
2013-02-04 10:29:00,47.2,43.6,30.16,West,270,1.1,2.5,87,0.00,,,0.00,WUHU216HW,2013-02-04 18:29:00,
2013-02-04 10:34:00,47.5,43.6,30.16,West,270,2.2,2.5,86,0.00,,,0.00,WUHU216HW,2013-02-04 18:34:00,
2013-02-04 10:39:00,47.7,43.8,30.16,WSW,248,2.0,2.2,86,0.00,,,0.00,WUHU216HW,2013-02-04 18:39:00,
2013-02-04 10:44:00,48.1,43.7,30.15,ENE,68,1.1,2.0,85,0.00,,,0.00,WUHU216HW,2013-02-04 18:44:00,
2013-02-04 10:49:00,48.6,43.9,30.15,North,0,1.3,1.8,84,0.00,,,0.00,WUHU216HW,2013-02-04 18:49:00,
2013-02-04 10:54:00,49.0,44.0,30.14,ENE,68,1.8,2.9,83,0.00,,,0.00,WUHU216HW,2013-02-04 18:54:00,
2013-02-04 10:59:00,49.3,44.3,30.14,East,90,0.2,2.9,83,0.00,,,0.00,WUHU216HW,2013-02-04 18:59:00,
2013-02-04 11:04:00,49.7,45.0,30.14,SSW,203,0.4,1.8,84,0.00,,,0.00,WUHU216HW,2013-02-04 19:04:00,
2013-02-04 11:09:00,49.9,45.2,30.14,North,0,1.1,1.1,84,0.00,,,0.00,WUHU216HW,2013-02-04 19:09:00,
2013-02-04 11:14:00,50.4,45.1,30.13,ESE,113,0.7,1.1,82,0.00,,,0.00,WUHU216HW,2013-02-04 19:14:00,
2013-02-04 11:19:00,50.8,45.1,30.13,ENE,68,1.8,1.8,81,0.00,,,0.00,WUHU216HW,2013-02-04 19:19:00,
2013-02-04 11:24:00,51.3,46.0,30.13,SSW,203,2.0,3.1,82,0.00,,,0.00,WUHU216HW,2013-02-04 19:24:00,
2013-02-04 11:30:00,51.7,46.4,30.13,SW,225,2.5,3.1,82,0.00,,,0.00,WUHU216HW,2013-02-04 19:30:00,
2013-02-04 11:35:00,51.8,46.2,30.13,NE,45,1.1,2.5,81,0.00,,,0.00,WUHU216HW,2013-02-04 19:35:00,
2013-02-04 11:40:00,52.2,45.5,30.12,ENE,68,1.1,2.5,78,0.00,,,0.00,WUHU216HW,2013-02-04 19:40:00,
2013-02-04 11:45:00,52.6,46.3,30.12,NNW,338,4.0,4.0,79,0.00,,,0.00,WUHU216HW,2013-02-04 19:45:00,
2013-02-04 11:50:00,52.9,46.6,30.12,West,270,2.9,4.0,79,0.00,,,0.00,WUHU216HW,2013-02-04 19:50:00,
2013-02-04 11:55:00,52.9,46.3,30.12,WNW,293,0.4,2.9,78,0.00,,,0.00,WUHU216HW,2013-02-04 19:55:00,
2013-02-04 12:00:00,53.5,46.4,30.12,WNW,293,4.0,4.0,77,0.00,,,0.00,WUHU216HW,2013-02-04 20:00:00,
2013-02-04 12:05:00,53.6,46.6,30.11,West,270,2.5,4.5,77,0.00,,,0.00,WUHU216HW,2013-02-04 20:05:00,
2013-02-04 12:10:00,54.0,47.0,30.11,WNW,293,2.5,4.5,77,0.00,,,0.00,WUHU216HW,2013-02-04 20:10:00,
2013-02-04 12:15:00,54.4,47.0,30.11,NNE,23,1.1,2.5,76,0.00,,,0.00,WUHU216HW,2013-02-04 20:15:00,
2013-02-04 12:20:00,54.5,47.4,30.10,SSW,203,4.0,4.0,77,0.00,,,0.00,WUHU216HW,2013-02-04 20:20:00,
2013-02-04 12:25:00,54.9,47.8,30.10,WSW,248,2.7,6.0,77,0.00,,,0.00,WUHU216HW,2013-02-04 20:25:00,
2013-02-04 12:30:00,55.1,48.0,30.10,WSW,248,4.0,6.0,77,0.00,,,0.00,WUHU216HW,2013-02-04 20:30:00,
2013-02-04 12:35:00,55.4,48.3,30.10,WSW,248,4.5,5.4,77,0.00,,,0.00,WUHU216HW,2013-02-04 20:35:00,
2013-02-04 12:40:00,55.4,48.0,30.10,West,270,1.8,5.4,76,0.00,,,0.00,WUHU216HW,2013-02-04 20:40:00,
2013-02-04 12:45:00,55.8,48.3,30.09,WSW,248,2.0,3.6,76,0.00,,,0.00,WUHU216HW,2013-02-04 20:45:00,
2013-02-04 12:50:00,56.0,48.5,30.09,South,180,2.5,3.6,76,0.00,,,0.00,WUHU216HW,2013-02-04 20:50:00,
2013-02-04 12:54:00,56.2,48.6,30.09,West,270,1.1,2.5,76,0.00,,,0.00,WUHU216HW,2013-02-04 20:54:00,
2013-02-04 12:59:00,56.5,49.0,30.08,WSW,248,1.8,3.1,76,0.00,,,0.00,WUHU216HW,2013-02-04 20:59:00,
2013-02-04 13:04:00,56.7,49.1,30.08,SW,225,1.3,3.8,76,0.00,,,0.00,WUHU216HW,2013-02-04 21:04:00,
2013-02-04 13:09:00,56.7,48.8,30.08,West,270,0.7,3.8,75,0.00,,,0.00,WUHU216HW,2013-02-04 21:09:00,
2013-02-04 13:14:00,57.1,48.8,30.08,SSE,158,1.3,3.1,74,0.00,,,0.00,WUHU216HW,2013-02-04 21:14:00,
2013-02-04 13:19:00,57.2,49.3,30.07,SW,225,0.4,2.5,75,0.00,,,0.00,WUHU216HW,2013-02-04 21:19:00,
2013-02-04 13:24:00,57.4,49.5,30.07,SSW,203,2.9,2.9,75,0.00,,,0.00,WUHU216HW,2013-02-04 21:24:00,
2013-02-04 13:29:00,58.0,49.7,30.07,WSW,248,1.6,2.9,74,0.00,,,0.00,WUHU216HW,2013-02-04 21:29:00,
2013-02-04 13:34:00,58.1,49.9,30.07,West,270,2.9,5.1,74,0.00,,,0.00,WUHU216HW,2013-02-04 21:34:00,
2013-02-04 13:39:00,58.3,49.7,30.07,SW,225,2.5,5.1,73,0.00,,,0.00,WUHU216HW,2013-02-04 21:39:00,
2013-02-04 13:44:00,58.5,49.9,30.06,West,270,1.8,2.9,73,0.00,,,0.00,WUHU216HW,2013-02-04 21:44:00,
2013-02-04 13:49:00,58.7,50.0,30.06,WSW,248,2.7,3.1,73,0.00,,,0.00,WUHU216HW,2013-02-04 21:49:00,
2013-02-04 13:54:00,59.0,50.4,30.05,SW,225,4.5,4.5,73,0.00,,,0.00,WUHU216HW,2013-02-04 21:54:00,
2013-02-04 13:59:00,59.0,50.0,30.05,SW,225,4.0,4.5,72,0.00,,,0.00,WUHU216HW,2013-02-04 21:59:00,
2013-02-04 14:04:00,59.4,50.0,30.05,NW,315,2.0,4.0,71,0.00,,,0.00,WUHU216HW,2013-02-04 22:04:00,
2013-02-04 14:09:00,59.6,50.2,30.05,West,270,4.5,4.5,71,0.00,,,0.00,WUHU216HW,2013-02-04 22:09:00,
2013-02-04 14:14:00,60.1,49.1,30.05,WNW,293,2.9,4.5,67,0.00,,,0.00,WUHU216HW,2013-02-04 22:14:00,
2013-02-04 14:19:00,60.3,49.8,30.05,North,0,1.3,3.8,68,0.00,,,0.00,WUHU216HW,2013-02-04 22:19:00,
2013-02-04 14:24:00,60.8,49.1,30.05,NE,45,1.3,3.8,65,0.00,,,0.00,WUHU216HW,2013-02-04 22:24:00,
2013-02-04 14:29:00,61.0,49.6,30.04,WSW,248,3.4,3.8,66,0.00,,,0.00,WUHU216HW,2013-02-04 22:29:00,
2013-02-04 14:34:00,61.0,50.0,30.04,WSW,248,3.8,3.8,67,0.00,,,0.00,WUHU216HW,2013-02-04 22:34:00,
2013-02-04 14:39:00,61.0,50.0,30.04,NNW,338,1.6,3.8,67,0.00,,,0.00,WUHU216HW,2013-02-04 22:39:00,
2013-02-04 14:45:00,61.2,50.2,30.04,SW,225,1.8,3.6,67,0.00,,,0.00,WUHU216HW,2013-02-04 22:45:00,
2013-02-04 14:50:00,61.4,50.8,30.04,NW,315,1.8,5.1,68,0.00,,,0.00,WUHU216HW,2013-02-04 22:50:00,
2013-02-04 14:55:00,61.4,50.8,30.04,WNW,293,1.8,5.1,68,0.00,,,0.00,WUHU216HW,2013-02-04 22:55:00,
2013-02-04 15:00:00,61.6,50.9,30.04,WSW,248,3.1,4.5,68,0.00,,,0.00,WUHU216HW,2013-02-04 23:00:00,
2013-02-04 15:05:00,61.6,50.1,30.04,NW,315,1.6,4.5,66,0.00,,,0.00,WUHU216HW,2013-02-04 23:05:00,
2013-02-04 15:10:00,61.6,50.5,30.04,WNW,293,4.0,4.0,67,0.00,,,0.00,WUHU216HW,2013-02-04 23:10:00,
2013-02-04 15:15:00,61.7,50.3,30.04,ESE,113,0.9,4.0,66,0.00,,,0.00,WUHU216HW,2013-02-04 23:15:00,
2013-02-04 15:20:00,61.9,50.4,30.04,NW,315,1.1,4.0,66,0.00,,,0.00,WUHU216HW,2013-02-04 23:20:00,
2013-02-04 15:25:00,61.7,50.3,30.04,SSE,158,0.9,1.1,66,0.00,,,0.00,WUHU216HW,2013-02-04 23:25:00,
2013-02-04 15:30:00,61.7,50.7,30.04,NNW,338,1.1,2.0,67,0.00,,,0.00,WUHU216HW,2013-02-04 23:30:00,
2013-02-04 15:35:00,61.9,50.1,30.04,ENE,68,2.2,4.7,65,0.00,,,0.00,WUHU216HW,2013-02-04 23:35:00,
2013-02-04 15:40:00,62.3,50.3,30.04,SE,135,0.4,4.7,65,0.00,,,0.00,WUHU216HW,2013-02-04 23:40:00,
2013-02-04 15:45:00,62.3,50.8,30.04,NNW,338,0.0,2.2,66,0.00,,,0.00,WUHU216HW,2013-02-04 23:45:00,
2013-02-04 15:50:00,62.3,50.3,30.04,NW,315,0.4,2.9,65,0.00,,,0.00,WUHU216HW,2013-02-04 23:50:00,
2013-02-04 15:55:00,62.3,50.8,30.04,SW,225,4.0,4.7,66,0.00,,,0.00,WUHU216HW,2013-02-04 23:55:00,
2013-02-04 16:00:00,62.3,51.2,30.04,SW,225,2.9,4.7,67,0.00,,,0.00,WUHU216HW,2013-02-05 00:00:00,
2013-02-04 16:05:00,62.1,51.4,30.04,SW,225,4.9,5.4,68,0.00,,,0.00,WUHU216HW,2013-02-05 00:05:00,
2013-02-04 16:10:00,61.9,51.3,30.04,WSW,248,4.5,5.4,68,0.00,,,0.00,WUHU216HW,2013-02-05 00:10:00,
2013-02-04 16:15:00,61.9,51.3,30.04,West,270,2.5,4.7,68,0.00,,,0.00,WUHU216HW,2013-02-05 00:15:00,
2013-02-04 16:20:00,61.7,51.5,30.04,SW,225,2.0,4.5,69,0.00,,,0.00,WUHU216HW,2013-02-05 00:20:00,
2013-02-04 16:25:00,61.6,51.4,30.04,WSW,248,3.4,3.6,69,0.00,,,0.00,WUHU216HW,2013-02-05 00:25:00,
2013-02-04 16:30:00,61.6,51.4,30.04,SW,225,1.8,3.6,69,0.00,,,0.00,WUHU216HW,2013-02-05 00:30:00,
2013-02-04 16:35:00,61.2,51.0,30.04,SW,225,2.5,3.8,69,0.00,,,0.00,WUHU216HW,2013-02-05 00:35:00,
2013-02-04 16:40:00,60.8,50.7,30.04,WSW,248,2.5,4.0,69,0.00,,,0.00,WUHU216HW,2013-02-05 00:40:00,
2013-02-04 16:45:00,60.7,50.5,30.04,SW,225,3.6,4.0,69,0.00,,,0.00,WUHU216HW,2013-02-05 00:45:00,
2013-02-04 16:50:00,60.5,50.3,30.04,WSW,248,2.9,3.6,69,0.00,,,0.00,WUHU216HW,2013-02-05 00:50:00,
2013-02-04 16:55:00,60.1,50.4,30.04,WSW,248,2.5,3.4,70,0.00,,,0.00,WUHU216HW,2013-02-05 00:55:00,
2013-02-04 17:00:00,59.8,50.0,30.04,WSW,248,2.5,3.4,70,0.00,,,0.00,WUHU216HW,2013-02-05 01:00:00,
2013-02-04 17:05:00,59.6,50.2,30.03,WSW,248,2.2,2.9,71,0.00,,,0.00,WUHU216HW,2013-02-05 01:05:00,
2013-02-04 17:10:00,59.4,50.0,30.03,SW,225,3.4,3.4,71,0.00,,,0.00,WUHU216HW,2013-02-05 01:10:00,
2013-02-04 17:15:00,58.7,49.7,30.03,West,270,2.0,5.1,72,0.00,,,0.00,WUHU216HW,2013-02-05 01:15:00,
2013-02-04 17:20:00,58.5,49.5,30.03,West,270,2.0,5.1,72,0.00,,,0.00,WUHU216HW,2013-02-05 01:20:00,
2013-02-04 17:25:00,58.0,49.3,30.04,WNW,293,3.4,3.4,73,0.00,,,0.00,WUHU216HW,2013-02-05 01:25:00,
2013-02-04 17:30:00,57.8,49.1,30.04,West,270,2.2,3.4,73,0.00,,,0.00,WUHU216HW,2013-02-05 01:30:00,
2013-02-04 17:35:00,57.4,48.8,30.04,West,270,3.1,3.4,73,0.00,,,0.00,WUHU216HW,2013-02-05 01:35:00,
2013-02-04 17:40:00,57.1,48.4,30.04,West,270,1.8,3.1,73,0.00,,,0.00,WUHU216HW,2013-02-05 01:40:00,
2013-02-04 17:45:00,56.7,48.1,30.04,SW,225,2.7,3.4,73,0.00,,,0.00,WUHU216HW,2013-02-05 01:45:00,
2013-02-04 17:50:00,56.3,47.8,30.04,West,270,3.6,4.3,73,0.00,,,0.00,WUHU216HW,2013-02-05 01:50:00,
2013-02-04 17:55:00,56.0,47.8,30.04,WSW,248,1.8,4.3,74,0.00,,,0.00,WUHU216HW,2013-02-05 01:55:00,
2013-02-04 18:00:00,55.4,47.3,30.04,SW,225,2.0,2.7,74,0.00,,,0.00,WUHU216HW,2013-02-05 02:00:00,
2013-02-04 18:05:00,55.1,47.3,30.04,SW,225,1.8,3.4,75,0.00,,,0.00,WUHU216HW,2013-02-05 02:05:00,
2013-02-04 18:10:00,54.9,47.1,30.04,SW,225,2.5,3.4,75,0.00,,,0.00,WUHU216HW,2013-02-05 02:10:00,
2013-02-04 18:15:00,54.4,46.6,30.04,WSW,248,1.3,2.5,75,0.00,,,0.00,WUHU216HW,2013-02-05 02:15:00,
2013-02-04 18:20:00,54.4,46.6,30.04,SSW,203,2.0,2.2,75,0.00,,,0.00,WUHU216HW,2013-02-05 02:20:00,
2013-02-04 18:25:00,53.6,45.9,30.04,South,180,1.3,2.2,75,0.00,,,0.00,WUHU216HW,2013-02-05 02:25:00,
2013-02-04 18:30:00,53.3,45.5,30.04,SW,225,1.6,2.0,75,0.00,,,0.00,WUHU216HW,2013-02-05 02:30:00,
2013-02-04 18:35:00,53.1,45.4,30.04,SW,225,1.1,2.0,75,0.00,,,0.00,WUHU216HW,2013-02-05 02:35:00,
2013-02-04 18:40:00,52.6,44.9,30.05,SW,225,1.1,2.0,75,0.00,,,0.00,WUHU216HW,2013-02-05 02:40:00,
2013-02-04 18:45:00,52.4,44.7,30.05,SSW,203,0.4,1.8,75,0.00,,,0.00,WUHU216HW,2013-02-05 02:45:00,
2013-02-04 18:50:00,52.0,44.4,30.05,SSW,203,0.7,1.8,75,0.00,,,0.00,WUHU216HW,2013-02-05 02:50:00,
2013-02-04 18:55:00,51.7,44.4,30.05,SW,225,0.4,1.1,76,0.00,,,0.00,WUHU216HW,2013-02-05 02:55:00,
2013-02-04 19:00:00,51.3,44.0,30.05,SE,135,0.7,1.1,76,0.00,,,0.00,WUHU216HW,2013-02-05 03:00:00,
2013-02-04 19:05:00,50.9,44.0,30.04,SE,135,0.7,0.9,77,0.00,,,0.00,WUHU216HW,2013-02-05 03:05:00,
2013-02-04 19:10:00,50.8,43.8,30.04,ESE,113,1.3,1.6,77,0.00,,,0.00,WUHU216HW,2013-02-05 03:10:00,
2013-02-04 19:15:00,50.2,43.3,30.04,SE,135,0.4,1.8,77,0.00,,,0.00,WUHU216HW,2013-02-05 03:15:00,
2013-02-04 19:20:00,50.0,43.1,30.04,SE,135,1.8,1.8,77,0.00,,,0.00,WUHU216HW,2013-02-05 03:20:00,
2013-02-04 19:25:00,49.7,43.0,30.04,SE,135,0.9,2.0,78,0.00,,,0.00,WUHU216HW,2013-02-05 03:25:00,
2013-02-04 19:30:00,49.5,42.8,30.04,ESE,113,0.9,2.0,78,0.00,,,0.00,WUHU216HW,2013-02-05 03:30:00,
2013-02-04 19:35:00,49.3,42.7,30.04,ESE,113,1.1,1.6,78,0.00,,,0.00,WUHU216HW,2013-02-05 03:35:00,
2013-02-04 19:40:00,49.1,42.5,30.04,SE,135,1.1,1.8,78,0.00,,,0.00,WUHU216HW,2013-02-05 03:40:00,
2013-02-04 19:45:00,49.0,42.7,30.04,East,90,1.1,1.8,79,0.00,,,0.00,WUHU216HW,2013-02-05 03:45:00,
2013-02-04 19:50:00,48.8,42.5,30.04,SE,135,1.1,1.1,79,0.00,,,0.00,WUHU216HW,2013-02-05 03:50:00,
2013-02-04 19:55:00,48.6,42.3,30.05,ESE,113,1.3,1.8,79,0.00,,,0.00,WUHU216HW,2013-02-05 03:55:00,
2013-02-04 20:00:00,48.4,42.5,30.06,ESE,113,0.4,1.8,80,0.00,,,0.00,WUHU216HW,2013-02-05 04:00:00,
2013-02-04 20:05:00,48.2,42.3,30.06,ESE,113,0.7,1.3,80,0.00,,,0.00,WUHU216HW,2013-02-05 04:05:00,
2013-02-04 20:10:00,48.1,42.1,30.06,ESE,113,0.2,0.9,80,0.00,,,0.00,WUHU216HW,2013-02-05 04:10:00,
2013-02-04 20:15:00,47.9,41.9,30.06,SSE,158,0.4,0.7,80,0.00,,,0.00,WUHU216HW,2013-02-05 04:15:00,
2013-02-04 20:20:00,47.9,41.9,30.06,SSE,158,0.0,0.7,80,0.00,,,0.00,WUHU216HW,2013-02-05 04:20:00,
2013-02-04 20:25:00,47.5,41.7,30.06,SW,225,1.1,1.1,80,0.00,,,0.00,WUHU216HW,2013-02-05 04:25:00,
2013-02-04 20:30:00,47.5,41.7,30.06,SE,135,0.9,1.3,80,0.00,,,0.00,WUHU216HW,2013-02-05 04:30:00,
2013-02-04 20:35:00,47.2,41.3,30.06,SSE,158,2.0,2.0,80,0.00,,,0.00,WUHU216HW,2013-02-05 04:35:00,
2013-02-04 20:40:00,47.0,41.1,30.06,SSE,158,1.6,2.0,80,0.00,,,0.00,WUHU216HW,2013-02-05 04:40:00,
2013-02-04 20:45:00,46.8,41.1,30.06,SSE,158,0.4,1.8,80,0.00,,,0.00,WUHU216HW,2013-02-05 04:45:00,
2013-02-04 20:50:00,46.6,40.9,30.05,SSE,158,0.4,1.3,80,0.00,,,0.00,WUHU216HW,2013-02-05 04:50:00,
2013-02-04 20:55:00,46.4,40.7,30.05,SSE,158,0.4,1.1,80,0.00,,,0.00,WUHU216HW,2013-02-05 04:55:00,
2013-02-04 21:00:00,46.4,40.7,30.06,SSW,203,0.0,1.1,80,0.00,,,0.00,WUHU216HW,2013-02-05 05:00:00,
2013-02-04 21:05:00,46.1,40.6,30.06,SSW,203,0.0,1.1,81,0.00,,,0.00,WUHU216HW,2013-02-05 05:05:00,
2013-02-04 21:10:00,46.1,40.6,30.06,SSW,203,0.0,0.0,81,0.00,,,0.00,WUHU216HW,2013-02-05 05:10:00,
2013-02-04 21:15:00,45.7,40.2,30.06,SW,225,0.4,0.4,81,0.00,,,0.00,WUHU216HW,2013-02-05 05:15:00,
2013-02-04 21:20:00,45.7,40.2,30.07,SW,225,0.2,0.4,81,0.00,,,0.00,WUHU216HW,2013-02-05 05:20:00,
2013-02-04 21:25:00,45.7,40.2,30.07,SW,225,0.4,0.4,81,0.00,,,0.00,WUHU216HW,2013-02-05 05:25:00,
2013-02-04 21:30:00,45.5,40.1,30.06,West,270,0.4,1.6,81,0.00,,,0.00,WUHU216HW,2013-02-05 05:30:00,
2013-02-04 21:35:00,45.4,39.9,30.06,SW,225,1.1,1.6,81,0.00,,,0.00,WUHU216HW,2013-02-05 05:35:00,
2013-02-04 21:40:00,45.2,39.7,30.06,SW,225,2.0,2.0,81,0.00,,,0.00,WUHU216HW,2013-02-05 05:40:00,
2013-02-04 21:45:00,45.0,39.5,30.06,SW,225,1.1,2.0,81,0.00,,,0.00,WUHU216HW,2013-02-05 05:45:00,
2013-02-04 21:50:00,45.0,39.5,30.06,SW,225,1.3,2.0,81,0.00,,,0.00,WUHU216HW,2013-02-05 05:50:00,
2013-02-04 21:55:00,45.0,39.5,30.06,SSW,203,2.5,2.5,81,0.00,,,0.00,WUHU216HW,2013-02-05 05:55:00,
2013-02-04 22:00:00,45.0,39.9,30.06,WSW,248,1.1,2.5,82,0.00,,,0.00,WUHU216HW,2013-02-05 06:00:00,
2013-02-04 22:05:00,45.0,39.9,30.06,SSW,203,0.0,2.5,82,0.00,,,0.00,WUHU216HW,2013-02-05 06:05:00,
2013-02-04 22:10:00,45.2,40.3,30.06,WSW,248,1.1,1.6,83,0.00,,,0.00,WUHU216HW,2013-02-05 06:10:00,
2013-02-04 22:15:00,45.0,40.1,30.06,SW,225,0.2,1.1,83,0.00,,,0.00,WUHU216HW,2013-02-05 06:15:00,
2013-02-04 22:20:00,45.0,40.1,30.06,SW,225,0.0,1.1,83,0.00,,,0.00,WUHU216HW,2013-02-05 06:20:00,
2013-02-04 22:25:00,45.0,40.1,30.06,SW,225,1.3,1.6,83,0.00,,,0.00,WUHU216HW,2013-02-05 06:25:00,
2013-02-04 22:30:00,44.8,40.0,30.06,WSW,248,1.1,2.9,83,0.00,,,0.00,WUHU216HW,2013-02-05 06:30:00,
2013-02-04 22:35:00,44.8,40.0,30.06,SW,225,0.4,2.9,83,0.00,,,0.00,WUHU216HW,2013-02-05 06:35:00,
2013-02-04 22:40:00,44.6,39.8,30.06,WSW,248,1.8,2.0,83,0.00,,,0.00,WUHU216HW,2013-02-05 06:40:00,
2013-02-04 22:45:00,44.6,39.8,30.06,West,270,1.8,2.0,83,0.00,,,0.00,WUHU216HW,2013-02-05 06:45:00,
2013-02-04 22:50:00,44.6,39.8,30.06,WSW,248,1.8,2.5,83,0.00,,,0.00,WUHU216HW,2013-02-05 06:50:00,
2013-02-04 22:55:00,44.8,40.3,30.06,SW,225,2.9,4.0,84,0.00,,,0.00,WUHU216HW,2013-02-05 06:55:00,
2013-02-04 23:00:00,44.8,40.6,30.06,SW,225,1.3,4.0,85,0.00,,,0.00,WUHU216HW,2013-02-05 07:00:00,
2013-02-04 23:05:00,45.0,40.8,30.07,SE,135,2.7,4.0,85,0.00,,,0.00,WUHU216HW,2013-02-05 07:05:00,
2013-02-04 23:10:00,45.2,41.0,30.07,SSW,203,3.1,4.0,85,0.00,,,0.00,WUHU216HW,2013-02-05 07:10:00,
2013-02-04 23:15:00,45.4,41.4,30.07,West,270,2.9,4.0,86,0.00,,,0.00,WUHU216HW,2013-02-05 07:15:00,
2013-02-04 23:20:00,45.5,41.6,30.07,WSW,248,3.4,4.0,86,0.00,,,0.00,WUHU216HW,2013-02-05 07:20:00,
2013-02-04 23:25:00,45.7,42.1,30.07,WSW,248,4.5,6.9,87,0.00,,,0.00,WUHU216HW,2013-02-05 07:25:00,
2013-02-04 23:30:00,46.1,42.8,30.07,West,270,2.2,6.9,88,0.00,,,0.00,WUHU216HW,2013-02-05 07:30:00,
2013-02-04 23:35:00,46.1,42.8,30.08,West,270,1.6,5.8,88,0.00,,,0.00,WUHU216HW,2013-02-05 07:35:00,
2013-02-04 23:40:00,46.4,43.1,30.08,WSW,248,1.3,4.9,88,0.00,,,0.00,WUHU216HW,2013-02-05 07:40:00,
2013-02-04 23:45:00,46.4,43.1,30.07,WSW,248,1.6,2.7,88,0.00,,,0.00,WUHU216HW,2013-02-05 07:45:00,
2013-02-04 23:50:00,46.4,43.1,30.07,West,270,4.5,4.5,88,0.00,,,0.00,WUHU216HW,2013-02-05 07:50:00,
2013-02-04 23:55:00,46.4,43.1,30.08,WSW,248,3.8,4.5,88,0.00,,,0.00,WUHU216HW,2013-02-05 07:55:00,